Find Starlink 2731

NORAD ID: 48651 Int'l Des: 2021-044 Owner: SPXS Country: US Constellation: starlink operational
LEOCIRCULAR

リアルタイム位置

3D地球を読み込み中...

Starlink 2731について

説明を読み込み中...

次回通過

Passes for default location (London). Set your location on the main map for personalized predictions.

高度履歴

Loading altitude history...

軌道要素

1 48651U 21044P 26125.63370223 .00004547 00000-0 15812-3 0 9997
2 48651 53.1593 209.1862 0001225 85.9727 274.1415 15.31715214272542
Epoch: May 5, 2026 • Age: 17 hours

現在のステータス

高度 482.2 km
速度 7.62 km/s
衛星直下点 -34.49°S, 172.71°W
打ち上げ日 May 26, 2021
運用期間 4.9 years
タイプ internet

技術仕様

分類 Payload
質量 260.00 kg
乾燥質量 248.00 kg
総質量 260.00 kg
長さ 0.20 m
直径 2.80 m
スパン 9.00 m
形状 Box + pan
製造者 SPXS
バスタイプ Starlink
フェーズステータス In Orbit
所有者/国 SPXS/US

Most Searched